Вернуться в каталог

CZ-4C DEB

АктивенLEO
NORAD 36417·DEBRIS·🇨🇳 China

Запущен Mar 5, 2010 с Jiuquan Satellite Launch Center

Loading…

Ближайшие Пролёты (ближайшие 24 часа)

TLE

СвежийSource: Space-Track

Эпоха: Sep 14, 2026, 15:07 UTC

1 36417U 10009E   26257.63047611  .00000148  00000-0  16319-3 0  9997
2 36417  63.3633 128.0935 0541484  21.5087   1.9365 13.46495330811804

Отслеживайте CZ-4C DEB в реальном времени с AllMySat

Download on the App Store